Find Local Weather

World > North America > United States > Michigan

Cannonsburg, Michigan Regional Weather

Lat: 43.05N, Lon: 85.47W
Wx Zone: MIZ057
Feedback
Expires:201809232100;;100564
ASUS43 KDTX 232010
RWRMI 
MICHIGAN HOURLY REGIONAL WEATHER ROUNDUP
NATIONAL WEATHER SERVICE DETROIT/PONTIAC MI
400 PM EDT SUN SEP 23 2018

NOTE: "FAIR" INDICATES FEW OR NO CLOUDS BELOW 12,000 FEET WITH NO
SIGNIFICANT WEATHER AND/OR OBSTRUCTION TO VISIBILITY.


MIZ043>046-050>051-056>058-064>065-071>073-077>080-232100-
SOUTHWEST LOWER MICHIGAN
  
CITY           SKY/WX    TMP DP  RH WIND       PRES   REMARKS
BATTLE CREEK   FAIR      73  46  38 E7        30.16F                  
BENTON HARBOR  FAIR      73  49  42 E8        30.12F                  
BIG RAPIDS     FAIR      68  43  40 CALM      30.17F                  
COLDWATER      FAIR      70  48  46 SE6       30.15F                  
FREMONT        FAIR      70  45  40 E5        30.16S                  
HOLLAND        FAIR      70  50  49 VRB3      30.15F                  
GRAND RAPIDS   FAIR      69  49  48 E8        30.16F                  
IONIA          FAIR      69  46  43 E6        30.16F                  
KALAMAZOO      FAIR      72  47  40 SE6       30.15F                  
LUDINGTON      FAIR      67  54  64 SW7       30.16F                  
MARSHALL       FAIR      74  42  31 E3        30.15F                  
MOUNT PLEASANT FAIR      69  43  39 CALM      30.18F                  
MUSKEGON       FAIR      69  52  54 W6        30.15F                  
SOUTH HAVEN    FAIR      72  46  40 E5        30.14F                  
$$

SKY/WX - Weather  TMP - Temperature  DP - Dew Point  RH - Relative Humidity
WIND - Wind Direction/Speed PRES - Barometric Pressure